[[{"header":{"parameterUnit":"m.s-1","parameterCategory":1,"la1":30.2991,"la2":30.254,"lo1":-89.0895,"lo2":-89.0444,"dy":0.0017,"dx":0.0017,"nx":28,"ny":28,"refTime":"2025-06-18T09:00:00:Z","depth":0,"parameterNumber":2,"parameterNumberName":"U-component_of_WINDS"},"data":[0,0,0,0,0,0,0,0,0,0,0,0,0,0,0,0,0,0,0,0,0,0,0,0,0,0,0,0,0,0,0,0,0,0,0,0,0,0,0,0,0,0,0,0,0,0,0,0,0,0,0,0,0,0,0,0,0,0,1.6065,1.6063,0,1.5909,1.5907,1.5905,1.575,1.5747,1.5745,1.5743,1.5583,1.5581,1.5579,0,0,0,0,0,0,0,0,0,0,0,0,0,1.6227,1.6225,1.6065,1.6063,1.6061,1.5909,1.5907,1.5905,1.575,1.5747,1.5745,1.5743,1.5584,1.5581,1.5578,0,0,0,0,0,0,0,0,0,0,0,0,0,1.6122,1.6224,1.6066,1.5966,1.5955,1.5909,1.5907,1.5904,1.575,1.5747,1.5744,1.5741,1.5585,1.5582,1.5578,1.5618,0,0,1.5567,1.5566,0,0,0,0,0,0,0,0,1.6128,1.6117,1.5982,1.5972,1.5961,1.5845,1.5905,1.5808,1.5751,1.5828,1.5743,1.574,1.5673,1.5662,1.5639,1.5611,1.5604,1.5567,1.5565,1.5563,1.5562,0,0,0,0,0,0,0,1.6136,1.6122,1.6003,1.5981,1.5967,1.5928,1.5909,1.5886,1.577,1.5821,1.581,1.5793,1.5666,1.5643,1.5635,1.5601,1.5567,1.5564,1.5562,1.556,1.5593,1.5596,0,0,0,0,0,0,1.6159,1.6129,1.6008,1.5998,1.6039,1.5927,1.5907,1.5886,1.577,1.5749,1.5796,1.5787,1.5651,1.5639,1.5628,1.5665,1.5563,1.556,1.5558,1.559,1.5594,1.5597,0,0,0,0,0,0,1.6163,1.6149,1.6014,1.6061,1.604,1.5928,1.5905,1.5884,1.5861,1.5751,1.5729,1.5794,1.5648,1.5633,1.5621,1.5657,1.5559,1.5555,1.5586,1.5591,1.5595,1.574,0,0,0,0,0,0,1.6168,1.6152,1.6167,1.6062,1.6039,1.6011,1.5907,1.5883,1.5855,1.5841,1.5743,1.5723,1.5644,1.5627,1.5617,1.565,1.5553,1.5583,1.5588,1.5594,1.5731,1.5749,1.5764,0,0,0,0,0,1.6174,1.6215,1.6168,1.6155,1.6055,1.6014,1.6,1.5908,1.5859,1.5872,1.58,1.5727,1.5655,1.5627,1.5615,1.5648,1.558,1.5587,1.5593,1.5724,1.5745,1.5763,0,0,0,0,0,0,1.6327,1.6199,1.6147,1.6154,1.6096,1.5987,1.6002,1.5934,1.5888,1.5877,1.5765,1.5744,1.5744,1.5694,1.5666,1.5678,1.5607,1.5611,1.571,1.573,1.5746,1.5757,1.555,0,0,0,0,0,1.6362,1.6339,1.6228,1.6246,1.6219,1.6116,1.6094,1.6028,1.5963,1.5938,1.5865,1.5805,1.5767,1.5746,1.5706,1.5723,1.5698,1.5739,1.5756,1.5769,1.5775,1.5776,1.5792,1.5619,1.5619,1.5619,0,0,1.6433,1.636,1.6353,1.6275,1.6222,1.6199,1.6096,1.6078,1.6059,1.5935,1.5918,1.5863,1.5787,1.5789,1.5786,1.5747,1.5817,1.5778,1.579,1.5787,1.5785,1.5801,1.5816,1.5623,1.5622,1.5622,0,0,1.6551,1.6495,1.6502,1.645,1.637,1.6301,1.6303,1.6203,1.6162,1.6143,1.6048,1.6024,1.5964,1.5913,1.5879,1.5974,1.5904,1.5965,1.6049,1.6052,1.6065,1.6077,1.6109,1.6122,1.597,1.597,1.5971,0,1.665,1.6613,1.6514,1.65,1.6467,1.6352,1.6357,1.6312,1.6224,1.6203,1.6161,1.608,1.6022,1.6008,1.6031,1.6008,1.6005,1.5975,1.6072,1.6082,1.6091,1.612,1.6133,1.5978,1.5977,1.5977,1.5976,0,1.6737,1.6713,1.6728,1.6644,1.6613,1.6609,1.6508,1.6488,1.6424,1.6358,1.6338,1.6263,1.6205,1.6197,1.6135,1.6174,1.6152,1.6093,1.6019,1.6117,1.6142,1.6153,1.5989,1.5987,1.5984,1.5982,0,0,1.6949,1.6808,1.6815,1.6774,1.6677,1.6655,1.6645,1.6587,1.6571,1.6513,1.65,1.645,1.6393,1.6355,1.6286,1.6289,1.6365,1.6228,1.6225,1.6255,1.64,1.6444,1.6459,1.6318,1.632,1.6321,1.6405,0,1.7048,1.7023,1.6932,1.6933,1.6908,1.6797,1.6787,1.6725,1.6663,1.6631,1.6562,1.6527,1.6457,1.6432,1.643,1.6357,1.6393,1.635,1.6303,1.6303,1.6324,1.6472,1.652,1.6603,1.6415,1.6417,1.6418,0,1.7162,1.7111,1.711,1.7009,1.6995,1.6988,1.6926,1.6898,1.6824,1.6778,1.6735,1.6657,1.6637,1.6569,1.6539,1.6511,1.6486,1.6447,1.6448,1.644,1.6366,1.6466,1.6628,1.664,1.6433,1.6431,1.643,0,1.7314,1.7244,1.7233,1.7202,1.7086,1.7083,1.7034,1.6958,1.6928,1.6873,1.6852,1.6796,1.6766,1.6723,1.6631,1.6591,1.6611,1.6536,1.6571,1.6573,1.658,1.658,1.6739,1.6567,1.6567,1.6566,1.6566,0,1.7434,1.7437,1.7299,1.7293,1.7292,1.7186,1.7188,1.7128,1.706,1.7039,1.694,1.6921,1.6802,1.6769,1.6697,1.6682,1.6669,1.663,1.6611,1.6638,1.6643,1.662,1.6611,1.6569,1.6569,1.6568,1.6568,0,1.7604,1.7512,1.7492,1.7383,1.7355,1.7359,1.7265,1.7253,1.7184,1.7157,1.7145,1.7037,1.6993,1.6897,1.6828,1.6779,1.678,1.6747,1.6805,1.6793,1.6833,1.683,1.698,1.6994,1.6816,1.6818,1.6819,0,1.7686,1.7685,1.7575,1.7554,1.7509,1.7476,1.7443,1.7339,1.7309,1.7224,1.7222,1.717,1.7123,1.7058,1.6972,1.6917,1.688,1.6936,1.6871,1.6898,1.6878,1.6879,1.6877,1.6951,1.6954,1.6956,1.6957,0,1.7841,1.7795,1.7753,1.7695,1.7659,1.7609,1.7552,1.754,1.7421,1.7393,1.7346,1.731,1.7237,1.7186,1.7118,1.7066,1.6992,1.6978,1.6983,1.7011,1.7044,1.7024,1.6843,1.6975,1.6974,1.6972,1.6971,1.6971,1.7967,1.796,1.7881,1.7837,1.7783,1.7732,1.7715,1.7643,1.7602,1.7535,1.7476,1.7434,1.7357,1.7258,1.721,1.7175,1.7138,1.7146,1.7147,1.7151,1.7162,1.7051,1.7163,1.7162,1.7161,1.7161,1.716,0,1.8115,1.8058,1.8019,1.7942,1.7907,1.784,1.7773,1.7747,1.7712,1.7647,1.7602,1.7547,1.7496,1.7405,1.7346,1.7335,1.7299,1.7323,1.7322,1.7311,1.7199,1.72,1.7353,1.7353,1.7353,1.7353,1.7353,1.7353,1.8188,1.8172,1.8116,1.8071,1.8013,1.7972,1.7939,1.7891,1.7837,1.7781,1.7738,1.7679,1.7602,1.7536,1.7485,1.746,1.7442,1.7477,1.744,1.7337,1.7319,1.7302,1.7302,1.7474,1.7474,1.7554,1.7555,1.7556]},{"header":{"parameterUnit":"m.s-1","parameterCategory":1,"la1":30.2991,"la2":30.254,"lo1":-89.0895,"lo2":-89.0444,"dy":0.0017,"dx":0.0017,"nx":28,"ny":28,"refTime":"2025-06-18T09:00:00:Z","depth":0,"parameterNumber":3,"parameterNumberName":"V-component_of_WINDS"},"data":[0,0,0,0,0,0,0,0,0,0,0,0,0,0,0,0,0,0,0,0,0,0,0,0,0,0,0,0,0,0,0,0,0,0,0,0,0,0,0,0,0,0,0,0,0,0,0,0,0,0,0,0,0,0,0,0,0,0,6.0832,6.0833,0,6.0924,6.0925,6.0926,6.0882,6.0879,6.0877,6.0875,6.0963,6.0967,6.0971,0,0,0,0,0,0,0,0,0,0,0,0,0,6.0611,6.0616,6.0832,6.0833,6.0834,6.0924,6.0925,6.0926,6.0882,6.0879,6.0877,6.0874,6.0961,6.0966,6.0972,0,0,0,0,0,0,0,0,0,0,0,0,0,6.0705,6.0617,6.0832,6.0823,6.0823,6.0924,6.0925,6.0927,6.0883,6.0879,6.0876,6.0873,6.0959,6.0966,6.0973,6.1085,0,0,6.0993,6.0996,0,0,0,0,0,0,0,0,6.07,6.0714,6.0823,6.0824,6.0824,6.0888,6.0879,6.0979,6.0884,6.086,6.0875,6.0871,6.094,6.0948,6.0973,6.1089,6.1092,6.0994,6.0998,6.1001,6.1003,0,0,0,0,0,0,0,6.0694,6.0709,6.0868,6.0825,6.0826,6.0813,6.0822,6.0898,6.0918,6.0862,6.0859,6.0871,6.094,6.0967,6.0975,6.1094,6.0994,6.1,6.1004,6.1006,6.1304,6.1307,0,0,0,0,0,0,6.0688,6.0704,6.0865,6.0871,6.0753,6.0819,6.083,6.0871,6.0918,6.0921,6.0874,6.0868,6.0957,6.0967,6.0978,6.111,6.1001,6.1007,6.1011,6.13,6.1305,6.1309,0,0,0,0,0,0,6.0684,6.0703,6.0861,6.0787,6.0806,6.0827,6.0873,6.0875,6.0901,6.0927,6.0929,6.0898,6.0954,6.0968,6.1058,6.1112,6.101,6.1016,6.1295,6.1301,6.1307,6.1377,0,0,0,0,0,0,6.0678,6.0702,6.0746,6.0788,6.081,6.0943,6.0877,6.0879,6.0914,6.0908,6.095,6.0953,6.0953,6.1048,6.1065,6.112,6.1022,6.1291,6.1298,6.1305,6.137,6.1384,6.1397,0,0,0,0,0,6.067,6.0761,6.0749,6.0768,6.0866,6.0946,6.0958,6.0958,6.0919,6.0962,6.0978,6.0952,6.1105,6.1058,6.1076,6.1134,6.1287,6.1296,6.1304,6.1364,6.1381,6.1396,0,0,0,0,0,0,6.0722,6.0766,6.0753,6.0861,6.09,6.0938,6.0993,6.0977,6.1026,6.1018,6.1013,6.1023,6.1116,6.1134,6.1082,6.1244,6.119,6.1202,6.1228,6.1245,6.1259,6.1251,6.1027,0,0,0,0,0,6.0747,6.081,6.0844,6.0936,6.0957,6.0972,6.1006,6.1003,6.1042,6.1058,6.1081,6.1118,6.1174,6.1211,6.1265,6.1373,6.138,6.1422,6.1435,6.1446,6.1456,6.1513,6.1531,6.1337,6.1337,6.1337,0,0,6.0796,6.0829,6.0868,6.0947,6.0977,6.104,6.0986,6.1055,6.1101,6.1068,6.1154,6.1173,6.1214,6.1314,6.1359,6.1332,6.1512,6.1457,6.1466,6.147,6.1524,6.1542,6.1558,6.1343,6.1342,6.1341,0,0,6.0919,6.0952,6.1031,6.1063,6.111,6.112,6.1139,6.118,6.1191,6.1279,6.1255,6.1309,6.1407,6.1437,6.1465,6.1601,6.1577,6.1618,6.1687,6.1743,6.1758,6.1771,6.1817,6.1834,6.1629,6.1629,6.1629,0,6.0975,6.1071,6.1073,6.1144,6.1179,6.1155,6.1233,6.1263,6.1325,6.1348,6.1318,6.144,6.1466,6.1571,6.1605,6.1629,6.1649,6.1612,6.1756,6.177,6.1782,6.1826,6.1843,6.1633,6.1633,6.1632,6.1632,0,6.1136,6.1203,6.1261,6.1323,6.1364,6.1439,6.145,6.1491,6.1484,6.1497,6.1585,6.1616,6.1675,6.17,6.1694,6.1804,6.1786,6.1757,6.1701,6.1805,6.1846,6.1863,6.164,6.1638,6.1637,6.1636,0,0,6.1291,6.1355,6.1376,6.1403,6.1454,6.1505,6.1578,6.1638,6.1672,6.1716,6.1775,6.1859,6.1832,6.1864,6.1861,6.191,6.2013,6.1874,6.1875,6.1896,6.2134,6.2153,6.2173,6.1999,6.2002,6.2005,6.2129,0,6.1416,6.1546,6.155,6.1667,6.1728,6.1707,6.177,6.1807,6.1821,6.1873,6.1887,6.1946,6.1907,6.1926,6.1974,6.199,6.206,6.1982,6.2051,6.2053,6.2038,6.2195,6.2216,6.2331,6.2146,6.2148,6.215,0,6.1577,6.1628,6.1753,6.1795,6.1821,6.1878,6.1932,6.1984,6.2024,6.2031,6.2068,6.2057,6.2129,6.2075,6.2172,6.2119,6.2148,6.216,6.2165,6.2168,6.2106,6.2199,6.2369,6.2385,6.2176,6.2174,6.2172,0,6.1675,6.1775,6.1862,6.1886,6.1938,6.1979,6.2002,6.204,6.2075,6.2122,6.2145,6.22,6.2229,6.227,6.2274,6.2234,6.2372,6.2317,6.2376,6.2376,6.2403,6.2401,6.2576,6.2428,6.2427,6.2427,6.2427,0,6.1811,6.1887,6.1906,6.1959,6.2043,6.2047,6.213,6.2149,6.2183,6.2238,6.2224,6.2275,6.2278,6.2331,6.2334,6.2413,6.2427,6.2432,6.2431,6.2432,6.2431,6.2448,6.2439,6.2432,6.2431,6.243,6.2429,0,6.1932,6.1949,6.2041,6.2084,6.2097,6.2157,6.2192,6.2241,6.2255,6.2325,6.2341,6.2361,6.2422,6.2431,6.2502,6.2504,6.2598,6.2591,6.2584,6.2582,6.2639,6.2633,6.2829,6.2854,6.2692,6.2694,6.2695,0,6.2017,6.2075,6.2125,6.2162,6.2188,6.2247,6.2284,6.229,6.2328,6.238,6.2423,6.2483,6.2531,6.2628,6.2648,6.2701,6.2693,6.2758,6.27,6.2699,6.269,6.2685,6.269,6.2768,6.277,6.2771,6.2772,0,6.2164,6.2169,6.2224,6.2282,6.2327,6.2372,6.2415,6.2445,6.2457,6.25,6.2563,6.2601,6.2674,6.2733,6.2786,6.2807,6.2791,6.2791,6.2807,6.2806,6.2799,6.2801,6.2611,6.2786,6.2784,6.2783,6.2783,6.2782,6.2267,6.2317,6.236,6.2422,6.2455,6.2496,6.2544,6.2565,6.2619,6.268,6.268,6.2749,6.2788,6.2858,6.2884,6.2936,6.2914,6.2938,6.2943,6.2948,6.2952,6.2794,6.2946,6.2946,6.2945,6.2945,6.2945,0,6.241,6.2438,6.2495,6.2556,6.2604,6.2588,6.2635,6.2675,6.2736,6.2775,6.2824,6.2896,6.2953,6.2978,6.3033,6.307,6.3064,6.3084,6.3079,6.3084,6.297,6.2949,6.3088,6.3088,6.3088,6.3088,6.3088,6.3088,6.249,6.2574,6.2585,6.2685,6.2711,6.278,6.2808,6.2845,6.2876,6.2958,6.3006,6.3023,6.3056,6.3114,6.3165,6.317,6.319,6.3213,6.3215,6.3107,6.3092,6.3078,6.3059,6.3218,6.3218,6.3324,6.3325,6.3326]}]]